Location: Henham
(51.9333°N, 0.2500°E)
Time: 22:35:03
(UTC+00:00)

STARLINK-34 - Pass Details

Date: 23 October 2019
Orbit: 548 x 552 km, 53.0° (Epoch: 14 November)

Event Time Altitude Azimuth Distance (km) Brightness Sun altitude
Rises 17:27:59 0° 271° (W) 2,717 9.3 -6.7°
Reaches altitude 10° 17:30:13 10° 273° (W) 1,824 7.9 -7.0°
Maximum altitude 17:34:22 75° 359° (N) 573 3.7 -7.6°
Enters shadow 17:38:24 11° 86° (E) 1,781 5.5 -8.3°
